sat.trackr.live / text

‹ back to catalog

STARLINK-34771

NORAD 65078 · 2025-167A

PAYLOAD ACTIVE UNKNOWN

§ Identity

Operator
Country
US
Launch date
2025-08-04
Launch site
AFETR
Launch vehicle
Mass (kg)
RCS (m²)

Purposes: comms

External: N2YO · Heavens-Above · Gunter

§ Orbital elements

Epoch: 2026-05-25T02:12:27.575712Z

Period
94.11 min
Inclination
53.1597°
Eccentricity
0.0001043
Mean motion
15.30202982 rev/d
Perigee alt
474.5 km
Apogee alt
475.9 km
Semi-major
6,853.3 km
B*
9.2690e-4
RAAN
29.2533°
Arg perigee
85.9344°
Mean anomaly
274.1776°
Rev number
4,521

§ Raw data

STARLINK-347711 65078U 25167A   26145.09198583  .00027196  00000+0  92690-3 0  99912 65078  53.1597  29.2533 0001043  85.9344 274.1776 15.30202982 45211

JSON: /api/v1/satellites/65078 · /tle

For live sub-satellite position, see the globe view (requires WebGL).

§ Visibility from observer

Set your observer location to see the next 7 days of passes ≥ 10°. The values pass through the URL so the page stays shareable.

No JS? Fill the form by hand. The geolocation button needs JavaScript.